OBJECT H

Basic Information
Catalog Number:
54689
Catalog Name:
OBJECT H
International ID:
2022-167H
Orbit Center:
EARTH
Object Status:
In Orbit
Launch Date:
2022-12-09 UTC
Country:
中国 (CN)
Orbital Information
Data Source: International Orbital Data AOE Orbital Data
Epoch Time: 2026-09-04T04:59:33+0800 2026-09-01T10:00:00+0800
Semi-major Axis: 6836.512km 6836.673km
Eccentricity: 0.0004709 0.0004839
Inclination: 97.701° 97.702°
Argument of Perigee: 175.849° 185.183°
RAAN: 60.462° 57.542°
Mean Anomaly: 184.280° 231.387°
Perigee: 455.155km 455.227km
Apogee: 461.595km 461.845km
Period: 93.759分钟 93.762分钟
Mean Motion: 15.358574 15.358034
Detailed Information
Launch Site:
YSLA
Orbital Altitude:
LEO
Data Source:
AOE Working Group
Reference Frame:
TEME
Time System:
UTC
Epoch Type:
SGP4
2D Orbital Map
3D Orbital Map
Orbital Altitude Analysis
Orbital Inclination Analysis
Orbit Comprehensive Analysis Chart
View Comprehensive Chart